sat.trackr.live / text

‹ back to catalog

AEROCUBE 18B

NORAD 63222 · 2025-052N

PAYLOAD ACTIVE UNKNOWN

§ Identity

Operator
Country
US
Launch date
2025-03-15
Launch site
AFWTR
Launch vehicle
Mass (kg)
RCS (m²)

External: N2YO · Heavens-Above · Gunter

§ Orbital elements

Epoch: 2026-09-22T16:55:14.966112Z

Period
94.41 min
Inclination
97.3826°
Eccentricity
0.0005642
Mean motion
15.25298939 rev/d
Perigee alt
486.0 km
Apogee alt
493.8 km
Semi-major
6,868.0 km
B*
1.5824e-4
RAAN
157.8900°
Arg perigee
129.8126°
Mean anomaly
230.3610°
Rev number
8,475

§ Raw data

AEROCUBE 18B1 63222U 25052N   26265.70503433  .00003913  00000+0  15824-3 0  99932 63222  97.3826 157.8900 0005642 129.8126 230.3610 15.25298939 84750

JSON: /api/v1/satellites/63222 · /tle

For live sub-satellite position, see the globe view (requires WebGL).

§ Visibility from observer

Set your observer location to see the next 7 days of passes ≥ 10°. The values pass through the URL so the page stays shareable.

No JS? Fill the form by hand. The geolocation button needs JavaScript.

§ Radio — SatNOGS DB

ModeDescriptionDownlinkUplink
OQPSK Mode U - OQPSK 1Mbps 2.225 GHz

1 transmitter · refreshed weekly from db.satnogs.org